This is the latest recevied weather packets stored in our database for station/object K0VSC-1. If no packets are shown the sender has not sent any weather packets the latest 10 day(s).
| Time | Temp. | Humidity | Pressure | Rain* | Wind** | Luminosity | Snow |
|---|---|---|---|---|---|---|---|
| 1778112482 | 5° C | 52% | 1015.9 hPa | 0 mm | - | 63 W/m² | - |
| 1778112182 | 5° C | 51% | 1016 hPa | 0 mm | - | 70 W/m² | - |
| 1778111882 | 5° C | 52% | 1016.1 hPa | 0 mm | - | 76 W/m² | - |
| 1778111582 | 5° C | 52% | 1016 hPa | 0 mm | - | 90 W/m² | - |
| 1778111282 | 5° C | 51% | 1016 hPa | 0 mm | - | 100 W/m² | - |
| 1778110982 | 5° C | 51% | 1016 hPa | 0 mm | - | 105 W/m² | - |
| 1778110682 | 5° C | 52% | 1016.2 hPa | 0 mm | - | 111 W/m² | - |
| 1778110382 | 5° C | 52% | 1016.2 hPa | 0 mm | - | 121 W/m² | - |
| 1778110082 | 5° C | 51% | 1016.3 hPa | 0 mm | - | 111 W/m² | - |
| 1778109782 | 5° C | 52% | 1016.3 hPa | 0 mm | - | 100 W/m² | - |
| 1778109482 | 5° C | 52% | 1016.3 hPa | 0 mm | - | 93 W/m² | - |
| 1778109182 | 5° C | 52% | 1016.3 hPa | 0 mm | - | 91 W/m² | - |
| 1778108882 | 5° C | 51% | 1016.3 hPa | 0 mm | - | 98 W/m² | - |
| 1778108582 | 5° C | 53% | 1016.4 hPa | 0 mm | - | 104 W/m² | - |
| 1778108282 | 5° C | 51% | 1016.3 hPa | 0 mm | - | 104 W/m² | - |
| 1778107982 | 5° C | 52% | 1016.2 hPa | 0 mm | - | 109 W/m² | - |
| 1778107682 | 5° C | 51% | 1016.3 hPa | 0 mm | - | 116 W/m² | - |
| 1778107383 | 5° C | 52% | 1016.3 hPa | 0 mm | - | 116 W/m² | - |
| 1778107082 | 5° C | 51% | 1016.3 hPa | 0 mm | - | 123 W/m² | - |
| 1778106782 | 5° C | 52% | 1016.3 hPa | 0 mm | - | 125 W/m² | - |
| 1778106482 | 5° C | 50% | 1016.2 hPa | 0 mm | - | 121 W/m² | - |
| 1778106183 | 5° C | 51% | 1016.3 hPa | 0 mm | - | 125 W/m² | - |
| 1778105883 | 5° C | 52% | 1016.2 hPa | 0 mm | - | 128 W/m² | - |
| 1778105583 | 5° C | 50% | 1016.2 hPa | 0 mm | - | 142 W/m² | - |
| 1778105283 | 5.56° C | 50% | 1016.2 hPa | 0 mm | - | 163 W/m² | - |
* Rain latest hour (hover to see other rain measurements)
** Current wind speed in m/s (hover to see current wind gust speed)